Regional Weather Roundup
Issued by NWS Burlington, VT

Current Version | Previous Version | Text Only | Print | Product List | Glossary On
Versions: 1 2 3 4 5 6 7 8 9 10 11 12 13 14 15 16 17 18 19 20 21 22 23 24 25 26 27 28 29 30 31 32 33 34 35 36 37 38 39 40 41 42 43 44 45 46 47 48 49 50
477 ASUS41 KBTV 182111 RWRBTV VERMONT REGIONAL WEATHER ROUNDUP NATIONAL WEATHER SERVICE BURLINGTON VT 400 PM EST SAT NOV 18 2017 NOTE: "FAIR" INDICATES FEW OR NO CLOUDS BELOW 12,000 FEET WITH NO SIGNIFICANT WEATHER AND/OR OBSTRUCTIONS TO VISIBILITY. * THESE REPORTS ARE NOT UNDER NWS QUALITY CONTROL AND/OR DO NOT REPORT WEATHER SUCH AS PRECIPITATION AND FOG. VTZ001>019-182200- _____VERMONT_____ CITY SKY/WX TMP DP RH WIND PRES REMARKS BURLINGTON CLOUDY 41 22 46 S13 29.57F MONTPELIER CLOUDY 33 19 56 S6 29.65F WCI 28 MORRISVILLE CLOUDY 32 17 54 VRB5 29.61F WCI 27 ST. JOHNSBURY* N/A 32 20 61 MISG 29.62F LYNDONVILLE* CLOUDY 31 19 62 E5 29.63F WCI 26 MIDDLEBURY* CLOUDY 36 20 52 SW5 29.59F RUTLAND* CLOUDY 37 21 52 E18G25 29.59F WCI 27 SPRINGFIELD CLOUDY 34 21 59 CALM 29.67F HIGHGATE* CLOUDY 40 19 43 S8 29.55F NEWPORT* CLOUDY 33 18 54 S13 29.60F WCI 24 BENNINGTON CLOUDY 44 30 57 SW6 29.61F SUTTON* N/A 28 N/A N/A MISG N/A _____LAKE CHAMPLAIN_____ CITY SKY/WX TMP DP RH WIND PRES REMARKS BURTON ISLAND* N/A 43 30 61 S22G28 N/A COLCHESTER RF* N/A 41 32 70 S31 N/A WCI 30 DIAMOND ISL* N/A 37 27 65 S20 N/A WCI 27 $$ NYZ007-026>031-035-052-083-087-182200- _____NORTHERN NEW YORK_____ CITY SKY/WX TMP DP RH WIND PRES REMARKS PLATTSBURGH CLOUDY 38 21 50 S5 29.55F SARANAC LAKE LGT RAIN 38 27 64 SW10 29.47F WCI 31 MASSENA CLOUDY 35 29 78 E6 29.52F WCI 30 OGDENSBURG* CLOUDY 35 28 78 E6 29.48F WCI 30 POTSDAM* CLOUDY 34 27 75 E3 29.48F WATERTOWN CLOUDY 45 33 63 S10 29.44F FT DRUM CLOUDY 41 29 61 SE12 29.44F ALBANY CLOUDY 43 29 57 S16G25 29.62F GLENS FALLS CLOUDY 34 26 72 CALM 29.61F $$ NHZ002-005-011-182200- _____NEW HAMPSHIRE_____ CITY SKY/WX TMP DP RH WIND PRES REMARKS LEBANON CLOUDY 34 22 61 NE3 29.65F KEENE CLOUDY 40 27 59 S6 29.69F MT WASHINGTON CLOUDY 30 18 59 SW41G47 N/A WCI 13 PLYMOUTH CLOUDY 34 23 62 CALM 29.71F WHITEFIELD CLOUDY 33 22 63 W5 29.63F WCI 29 $$ _____REGIONAL QUEBEC LOCATIONS_____ CITY SKY/WX TMP DP RH WIND PRES REMARKS MONTREAL CLOUDY 32 21 64 NE15 29.56F WCI 22 QUEBEC CITY MOCLDY 27 18 69 E10 29.64F WCI 17 SHERBROOKE CLOUDY 32 25 74 E3 29.57F _____REGIONAL ONTARIO LOCATIONS_____ CITY SKY/WX TMP DP RH WIND PRES REMARKS OTTAWA CLOUDY 30 21 69 NE13 29.49F WCI 20 ______KEY______ VSB - VISIBILITY IN MILES WCI - WIND CHILL INDEX HX - HEAT INDEX $$ NNNN

USA.gov is the U.S. government's official web portal to all federal, state and local government web resources and services.